sat.trackr.live / text

‹ back to catalog

EUTELSAT KONNECT VHTS

NORAD 53765 · 2022-110A

PAYLOAD ACTIVE UNKNOWN

§ Identity

Operator
Country
EUTE
Launch date
2022-09-07
Launch site
FRGUI
Launch vehicle
Mass (kg)
RCS (m²)

Purposes: comms

External: N2YO · Heavens-Above · Gunter

§ Orbital elements

Epoch: 2026-05-25T03:45:24.686208Z

Period
1,436.15 min
Inclination
0.0600°
Eccentricity
0.0002755
Mean motion
1.00268399 rev/d
Perigee alt
35,775.9 km
Apogee alt
35,799.2 km
Semi-major
42,165.7 km
B*
0.0000e+0
RAAN
104.8962°
Arg perigee
298.2626°
Mean anomaly
258.6482°
Rev number
660

§ Raw data

EUTELSAT KONNECT VHTS1 53765U 22110A   26145.15653572  .00000014  00000+0  00000+0 0  99972 53765   0.0600 104.8962 0002755 298.2626 258.6482  1.00268399  6603

JSON: /api/v1/satellites/53765 · /tle

For live sub-satellite position, see the globe view (requires WebGL).

§ Visibility from observer

Set your observer location to see the next 7 days of passes ≥ 10°. The values pass through the URL so the page stays shareable.

No JS? Fill the form by hand. The geolocation button needs JavaScript.